Tracking 30264 objects as of 15-Feb-2025
HD Live streaming from Space Station
objects crossing your sky now

STARLINK-32684

Track STARLINK-32684 now!
10-day predictions
STARLINK-32684 is classified as:


NORAD ID: 62194
Int'l Code: 2024-229C
Perigee: 475.5 km
Apogee: 477.9 km
Inclination: 43.0 °
Period: 94.0 minutes
Semi major axis: 6847 km
RCS: Unknown
Launch date: December 4, 2024
Source: United States (US)
Launch site: AIR FORCE EASTERN TEST RANGE (AFETR)
Your satellite tracking list
Your tracking list is empty




NASA's NSSDC Master Catalog

Two Line Element Set (TLE):
1 62194U 24229C   25045.83131087 -.00000069  00000-0  65166-5 0  9993
2 62194  43.0049 301.9864 0001711 263.5846  96.4813 15.32096210 12417
Source of the keplerian elements: AFSPC